HST 1 20580U 90037B 26062.15651664 .00008766 00000+0 29119-3 0 9995 2 20580 28.4701 84.5634 0001675 60.3567 299.7195 15.29358901772310 POLAR 1 23802U 96013A 26061.74629649 .00000178 00000+0 00000+0 0 9990 2 23802 79.7411 228.2678 6362278 212.6879 83.6731 1.29845818143473 SWAS 1 25560U 98071A 26061.64025758 .00005793 00000+0 37385-3 0 9997 2 25560 69.8971 142.1245 0003362 25.2751 334.8577 15.08810310481192 CXO 1 25867U 99040B 26063.59985680 .00000824 00000+0 00000+0 0 9999 2 25867 54.4843 119.7682 8003286 310.7757 0.4217 0.37808937 16926 XMM-NEWTON 1 25989U 99066A 26061.64181856 .00000062 00000+0 00000+0 0 9993 2 25989 65.0189 284.3763 4712552 66.8130 359.9781 0.50131664 22470 TERRA 1 25994U 99068A 26062.13367142 .00000513 00000+0 11359-3 0 9994 2 25994 97.9607 115.8185 0002257 167.8691 217.2698 14.61006268394120 CLUSTER II-FM7 (SAMBA) 1 26410U 00041A 26063.25310773 .00003639 00000+0 00000+0 0 9992 2 26410 148.9920 34.5676 8908777 250.6745 359.7226 0.44785609 19832 CLUSTER II-FM8 (TANGO) 1 26464U 00045B 26049.06287974 .00004776 00000+0 00000+0 0 9997 2 26464 149.0711 33.5376 8890045 249.4570 359.4916 0.44405995 19769 ODIN 1 26702U 01007A 26062.04841551 .00047203 00000+0 63085-3 0 9999 2 26702 97.4085 97.8242 0004044 156.4137 203.7305 15.57909867372800 TIMED 1 26998U 01055B 26062.15496086 .00001548 00000+0 14517-3 0 9998 2 26998 74.0660 88.4733 0002949 282.8989 77.1865 14.94997468314971 CORIOLIS 1 27640U 03001A 26061.93484166 .00000176 00000+0 10311-3 0 9991 2 27640 98.7160 70.4302 0014466 155.1204 205.0672 14.19909642199148 SORCE 1 27651U 03004A 26061.65624908 .00004531 00000+0 34049-3 0 9998 2 27651 39.9904 149.1890 0016842 2.4266 357.6607 15.03033305255863 MOST 1 27843U 03031D 26061.98175538 .00000107 00000+0 69157-4 0 9991 2 27843 98.7081 71.1758 0009562 193.0216 167.0716 14.21297049175620 SCISAT 1 1 27858U 03036A 26061.92937821 .00001138 00000+0 15039-3 0 9991 2 27858 73.9314 22.4412 0005899 117.0208 243.1571 14.81294880215718 SWIFT 1 28485U 04047A 26061.89036178 .00045443 00000+0 55519-3 0 9996 2 28485 20.5531 278.9198 0002958 303.2489 56.7671 15.58608096170202 HINODE (SOLAR-B) 1 29479U 06041A 26062.03021429 .00000832 00000+0 15200-3 0 9992 2 29479 98.0628 79.7217 0016135 264.4191 95.5174 14.68460796 39297 SHIJIAN-6 02A (SJ-6 02A) 1 29505U 06046A 26062.17539331 .00007830 00000+0 41587-3 0 9990 2 29505 97.6511 102.4706 0004304 130.3006 229.8603 15.15584044 56206 SHIJIAN-6 02B (SJ-6 02B) 1 29506U 06046B 26062.23153988 .00002775 00000+0 22192-3 0 9992 2 29506 97.7051 92.0192 0014210 63.4599 296.8080 15.00960614 54846 FGRST (GLAST) 1 33053U 08029A 26061.87041750 .00004628 00000+0 17585-3 0 9998 2 33053 25.5811 222.3471 0008569 148.5067 211.5985 15.23265943979600 SDO 1 36395U 10005A 26062.06732368 -.00000069 00000+0 00000+0 0 9997 2 36395 34.4278 87.9487 0000370 70.7532 284.4475 1.00275344 58994 CRYOSAT 2 1 36508U 10013A 26062.15142362 .00000226 00000+0 55393-4 0 9995 2 36508 92.0224 251.6117 0002124 86.5705 273.5745 14.51905038842694 X-SAT 1 37389U 11015C 26062.21403227 .00000432 00000+0 20117-3 0 9997 2 37389 98.3411 44.3423 0013017 297.3012 62.6843 14.25170028772582 GCOM-W1 (SHIZUKU) 1 38337U 12025A 26061.94392594 .00000772 00000+0 18144-3 0 9990 2 38337 98.2047 4.1062 0001526 76.3825 13.3888 14.57086077733564 NUSTAR 1 38358U 12031A 26062.25001156 .00011348 00000+0 66821-3 0 9992 2 38358 6.0256 108.1070 0008474 328.2177 56.9295 15.07608288 1303 NEOSSAT 1 39089U 13009D 26062.07551905 .00000267 00000+0 10718-3 0 9994 2 39089 98.4135 244.6402 0010658 197.2622 162.8203 14.35781176681518 BRITE-AUSTRIA 1 39091U 13009F 26062.05707686 .00000281 00000+0 11028-3 0 9995 2 39091 98.3949 244.1306 0009968 190.8644 169.2329 14.36491289681813 IRIS 1 39197U 13033A 26062.09413168 .00001701 00000+0 20195-3 0 9995 2 39197 97.9398 261.6668 0023536 308.0460 51.8631 14.85620021684620 HISAKI (SPRINT-A) 1 39253U 13049A 26062.14740468 .00000111 00000+0 58849-4 0 9999 2 39253 29.7218 39.1159 0136736 237.0831 121.6521 13.55529914617029 CASSIOPE 1 39265U 13055A 26062.16202948 .00039577 -59521-6 47767-3 0 9991 2 39265 80.9190 194.7857 0317729 57.9993 305.1691 15.18188112651548 STSAT-3 1 39422U 13066G 26062.21733209 .00003623 00000+0 28048-3 0 9997 2 39422 97.6052 33.9655 0012180 36.7412 323.4646 15.02020375668291 SWARM B 1 39451U 13067A 26062.11930187 .00005471 00000+0 20051-3 0 9992 2 39451 87.7482 14.4783 0003708 90.5050 269.6623 15.27779632667040 SWARM A 1 39452U 13067B 26062.13186336 .00012042 00000+0 22522-3 0 9991 2 39452 87.3289 95.5883 0003032 93.6681 266.4926 15.48572287689828 SWARM C 1 39453U 13067C 26062.13175391 .00012362 00000+0 23124-3 0 9995 2 39453 87.3286 94.1700 0003019 93.6088 266.5517 15.48571795689780 BRITE-CA1 (TORONTO) 1 40020U 14033L 26061.90146809 .00001524 00000+0 23749-3 0 9998 2 40020 97.9556 192.9101 0077689 256.9523 102.3004 14.72438680626570 OCO 2 1 40059U 14035A 26062.12935892 .00000643 00000+0 15296-3 0 9994 2 40059 98.2191 5.0684 0001143 91.4739 268.6591 14.57084291620607 BRITE-PL2 (HEWELIUSZ) 1 40119U 14049B 26061.84231936 .00003093 00000+0 29400-3 0 9996 2 40119 97.8979 173.1336 0015452 102.4479 257.8470 14.94135381625560 MMS 1 1 40482U 15011A 26062.25001156 -.00002043 00000+0 00000+0 0 9990 2 40482 70.7146 350.2382 8416523 165.1307 293.1842 0.28212530 1339 MMS 2 1 40483U 15011B 26062.25001156 -.00002043 00000+0 00000+0 0 9991 2 40483 70.7148 350.2403 8417251 165.1368 293.1676 0.28212557 1336 MMS 3 1 40484U 15011C 26062.25001156 -.00002043 00000+0 00000+0 0 9992 2 40484 70.7172 350.2450 8416538 165.1309 293.1764 0.28212523 1339 MMS 4 1 40485U 15011D 26062.25001156 -.00002044 00000+0 00000+0 0 9994 2 40485 70.7152 350.2407 8416127 165.1294 293.1929 0.28199666 1332 ASTROSAT 1 40930U 15052A 26062.12840815 .00002300 00000+0 19911-3 0 9992 2 40930 5.9957 198.6571 0008471 317.5950 42.3524 14.82275532564060 DAMPE 1 41173U 15078A 26062.19693089 .00002104 00000+0 73874-4 0 9997 2 41173 97.4575 67.1561 0013858 91.2156 269.0672 15.30470881568334 PISAT 1 41784U 16059B 26061.94452745 .00001298 00000+0 22930-3 0 9998 2 41784 97.8188 66.9790 0029000 182.1280 177.9807 14.68753058504147 HXMT (HUIYAN) 1 42758U 17034A 26062.19516277 .00006179 00000+0 31154-3 0 9994 2 42758 43.0150 52.7764 0032200 196.0768 163.9061 15.17359352481556 FLYING LAPTOP 1 42831U 17042G 26062.17605742 .00002715 00000+0 21952-3 0 9996 2 42831 97.4247 222.1410 0018419 116.4688 243.8429 15.00460179470558 ZHANGHENG 1-01 (CSES-1) 1 43194U 18015C 26062.20777303 .00012008 00000+0 54503-3 0 9991 2 43194 97.6736 225.8188 0014852 268.6680 91.2853 15.20860252448534 SALSAT 1 46495U 20068K 26061.92839164 .00011638 00000+0 42811-3 0 9998 2 46495 97.8846 58.6665 0008827 325.0587 35.0071 15.28017587299126 IXPE 1 49954U 21121A 26062.16668981 .00015434 00000+0 88711-3 0 9993 2 49954 0.2303 38.4934 0007080 275.0397 14.8353 15.09103147 5864